STARLINK-3078 (49134 NORAD) Tracking and Keplerian Element Data

This shows tracking and keplerian element data for the satellite.

Feedback or suggestion? Click here.




ElementValue
Catalog49134
NameSTARLINK-3078
Epoch Orbit367
Epoch Day300.58334491
Epoch Year2021
RAAN4.7348
Inclination70.0013
Eccentricity0.0004375
Argument of Perigee291.9427
Mean Anonmoly57.6201
Mean Motion15.69700584
Decay Rate0.00053631
L11 49134U 21082E 21300.58334491 .00053631 00000-0 44898-3 0 9991
L22 49134 70.0013 4.7348 0004375 291.9427 57.6201 15.69700584 3675

Live tracking and technical data element details for STARLINK-3078 (NORAD 49134). STARLINK-3078 can be tracked NOW for your location showing map with azimuth and elevation plus other details from your city location.

Track the satellite on the map from your city or location and see movement details for azimuth, elevation, latitude, longitude, range, height, and movement on the map or in text.







IsCatalogInMostPopularTable: catalog: 49134, numindb: 6
Update: records affected: 1



GetName: 49134 STARLINK-3078

Hit Count: updated at: Thu, 28 Oct 2021 11:20:23 GMT